Location: Newton_East
(35.6670°N, 81.2000°W)
Time: 05:21:00
(UTC-05:00)

ISS - Visible Passes

Search period start: 21 November 2014 00:00
Search period end: 01 December 2014 00:00
Orbit: 408 x 417 km, 51.6° (Epoch: 20 November)

Date Brightness Start Highest point End Pass type
(mag) Time Alt. Az. Time Alt. Az. Time Alt. Az.
24 Nov -0.8 06:05:17 10° N 06:07:22 15° NNE 06:09:26 10° ENE visible
25 Nov -0.4 05:17:17 11° NNE 05:17:22 11° NNE 05:18:13 10° NE visible
26 Nov -1.9 06:02:30 15° NNW 06:04:44 33° NE 06:07:45 10° ESE visible
27 Nov -1.1 05:14:55 20° NE 05:14:55 20° NE 05:17:18 10° E visible
28 Nov -3.4 06:00:11 29° NW 06:01:42 83° SW 06:04:59 10° SE visible
29 Nov -1.8 05:12:39 37° E 05:12:39 37° E 05:14:58 10° ESE visible
29 Nov -1.1 06:46:28 10° W 06:48:04 13° SW 06:49:41 10° SSW visible
30 Nov -2.0 05:57:59 25° WSW 05:58:17 25° SW 06:01:02 10° S visible
